sat.trackr.live / text

‹ back to catalog

STARLINK-36072

NORAD 66856 · 2025-281J

PAYLOAD ACTIVE UNKNOWN

§ Identity

Operator
Country
US
Launch date
2025-12-02
Launch site
AFETR
Launch vehicle
Mass (kg)
RCS (m²)

Purposes: comms

External: N2YO · Heavens-Above · Gunter

§ Orbital elements

Epoch: 2026-09-20T11:49:39.065664Z

Period
94.27 min
Inclination
42.9994°
Eccentricity
0.0000948
Mean motion
15.27590205 rev/d
Perigee alt
482.4 km
Apogee alt
483.7 km
Semi-major
6,861.2 km
B*
5.5308e-4
RAAN
323.7172°
Arg perigee
153.9256°
Mean anomaly
206.1644°
Rev number
4,597

§ Raw data

STARLINK-360721 66856U 25281J   26263.49281326  .00014993  00000+0  55308-3 0  99922 66856  42.9994 323.7172 0000948 153.9256 206.1644 15.27590205 45971

JSON: /api/v1/satellites/66856 · /tle

For live sub-satellite position, see the globe view (requires WebGL).

§ Visibility from observer

Set your observer location to see the next 7 days of passes ≥ 10°. The values pass through the URL so the page stays shareable.

No JS? Fill the form by hand. The geolocation button needs JavaScript.